Date,TemperatureHighF,TemperatureAvgF,TemperatureLowF,DewpointHighF,DewpointAvgF,DewpointLowF,HumidityHigh,HumidityAvg,HumidityLow,PressureMaxIn,PressureMinIn,WindSpeedMaxMPH,WindSpeedAvgMPH,GustSpeedMaxMPH,PrecipitationSumIn
2012-12-1,37.2,34.5,32.0,36.0,28.7,-99.9,96,82,74,30.58,30.47,6,-10,8,0.00
2012-12-2,47.7,42.2,37.2,45.0,41.1,36.0,98,95,87,30.46,30.14,5,1,8,0.11
2012-12-3,60.4,49.2,42.3,51.0,44.9,41.0,99,86,56,30.30,30.12,4,1,11,0.00
2012-12-4,58.9,49.2,41.4,54.0,47.6,40.0,99,94,84,30.30,30.00,2,0,4,0.06
2012-12-5,54.8,46.8,33.7,52.0,36.3,20.0,99,69,47,30.25,29.94,11,4,19,0.01
2012-12-6,40.9,31.4,25.8,22.0,18.3,16.0,79,60,41,30.40,30.24,13,1,13,0.00
2012-12-7,39.1,32.5,24.7,38.0,30.4,21.0,97,92,81,30.32,30.06,1,0,1,0.22
2012-12-8,47.8,43.9,38.9,47.0,43.4,38.0,98,98,97,30.06,29.89,3,0,5,0.36
2012-12-9,47.5,42.4,39.2,46.0,39.5,33.0,99,89,72,30.29,30.03,6,2,10,0.29
2012-12-10,56.0,49.2,41.4,55.0,48.7,41.0,99,98,92,30.03,29.57,4,1,13,0.06
2012-12-11,50.0,43.1,37.1,48.0,33.9,26.0,92,71,55,30.22,29.62,8,3,13,0.01
2012-12-12,42.5,35.3,29.0,27.0,25.7,24.0,85,69,49,30.47,30.23,4,0,7,0.00
2012-12-13,45.7,34.2,27.1,29.0,26.1,24.0,93,74,48,30.51,30.35,4,0,6,0.00
2012-12-14,50.4,36.2,26.5,28.0,25.3,21.0,90,68,32,30.35,30.17,5,1,9,0.00
2012-12-15,45.2,37.3,29.9,33.0,29.6,27.0,90,75,57,30.35,30.25,3,0,4,0.00
2012-12-16,41.7,40.7,38.1,40.0,37.9,33.0,97,90,78,30.25,29.94,7,2,11,0.26
2012-12-17,40.7,38.7,36.8,41.0,38.1,36.0,99,98,97,29.95,29.67,4,2,6,0.33
2012-12-18,52.7,45.3,40.8,48.0,42.4,33.0,99,90,69,29.66,29.48,13,2,20,0.60
2012-12-19,45.8,41.6,35.9,33.0,28.7,26.0,70,61,50,30.15,29.63,14,4,23,0.00
2012-12-20,42.3,35.8,27.9,40.0,28.7,24.0,92,76,59,30.25,29.86,4,1,7,0.04
2012-12-21,56.1,43.5,35.0,55.0,38.8,29.0,98,84,71,29.82,29.11,12,4,35,1.27
2012-12-22,37.0,35.1,33.0,32.0,23.8,19.0,91,65,51,29.85,29.33,19,6,30,0.00
2012-12-23,41.8,35.7,28.9,26.0,22.1,18.0,70,58,44,29.98,29.84,9,2,17,0.00
2012-12-24,37.7,32.0,25.9,31.0,23.0,20.0,96,71,53,30.12,29.98,5,0,5,0.00
2012-12-25,38.8,33.5,28.3,33.0,30.1,25.0,97,87,72,30.29,29.95,5,1,12,0.19
2012-12-26,35.2,28.8,24.6,34.0,24.8,19.0,96,85,68,30.32,29.58,13,3,19,0.01
2012-12-27,37.5,33.8,28.1,35.0,30.1,20.0,96,86,72,29.86,29.35,15,6,24,0.90
2012-12-28,36.0,30.6,25.8,26.0,23.2,20.0,88,74,65,30.11,29.86,13,3,18,0.00
2012-12-29,30.2,28.6,23.9,29.0,26.1,22.0,96,90,84,30.09,29.54,6,1,7,0.00
2012-12-30,33.4,29.1,25.5,26.0,17.8,14.0,86,64,47,30.19,29.61,16,6,27,0.00
2012-12-31,38.8,31.5,24.0,24.0,20.4,16.0,75,64,53,30.21,29.91,7,2,13,0.00